Regional Weather Roundup
Issued by NWS

Home | Current Version | Previous Version | Graphics & Text | Print | Product List | Glossary On
Versions: 1 2 3 4 5 6 7 8 9 10 11 12 13 14 15 16 17 18 19 20 21 22 23 24 25 26 27 28 29 30 31 32 33 34 35 36 37 38 39 40 41 42 43 44 45 46 47 48 49 50
000
ASUS43 KTOP 011308
RWRKS

WEATHER ROUNDUP FOR KANSAS
NATIONAL WEATHER SERVICE GOODLAND KS
800 AM CDT FRI AUG 01 2014

NOTE:  "FAIR" INDICATES FEW OR NO CLOUDS BELOW 12,000 FEET WITH NO
SIGNIFICANT WEATHER AND/OR OBSTRUCTIONS TO VISIBILITY.

KSZ001>006-013>018-027>032-041>047-011400-
NORTHWEST KANSAS

CITY           SKY/WX    TMP DP  RH WIND       PRES   REMARKS
GOODLAND       MOSUNNY   59  55  87 W6        30.19R
HAYS           SUNNY     63  54  72 NW3       30.08R
HILL CITY      MOSUNNY   68  57  68 N8        30.11R
RUSSELL        SUNNY     64  59  83 W6        30.05S
$$

KSZ061>065-074>080-084>089-011400-
SOUTHWEST KANSAS

CITY           SKY/WX    TMP DP  RH WIND       PRES   REMARKS
DODGE CITY     SUNNY     65  57  75 W6        30.13S
ELKHART          N/A     63  56  78 W6          N/A
GARDEN CITY    SUNNY     61  57  87 NW6       30.15S
GREAT BEND       N/A     64  57  77 SW7       30.06F
LIBERAL        SUNNY     63  54  72 W6        30.17S
PRATT          SUNNY     64  57  77 SW8       30.09F
$$

KSZ066>073-081>083-090>101-011400-
SOUTHEAST KANSAS

CITY           SKY/WX    TMP DP  RH WIND       PRES   REMARKS
CHANUTE        FOG       64  64 100 CALM      30.10R VSB 1/4
COFFEYVILLE    CLOUDY    67  67 100 SW6       30.09R FOG
HUTCHINSON     SUNNY     67  58  72 S6        30.06F
MEDICINE LODGE   N/A     65  60  84 CALM      30.10S
NEWTON         SUNNY     66  57  72 SW9       30.10S
PARSONS        FOG       67  65  93 S5        30.10S VSB 1/4
WICHITA INTL   MOSUNNY   65  62  90 S6        30.07S FOG
WICHITA JABRA  SUNNY     68  63  84 SW8       30.07S
WICHITA MCCONL SUNNY     66  66 100 S6        30.08S
WINFIELD       MOSUNNY   66  66 100 CALM      30.10S
$$

KSZ007>012-019>026-033>040-048>060-102>105-011400-
NORTHEAST KANSAS

CITY           SKY/WX    TMP DP  RH WIND       PRES   REMARKS
CONCORDIA      SUNNY     65  58  78 NW5       30.04R
EMPORIA        MOSUNNY   64  62  93 CALM      30.08S
LAWRENCE       CLOUDY    67  62  84 CALM      30.07F
MANHATTAN      MOSUNNY   69  61  75 S3        30.04F
MARYSVILLE     SUNNY     70  61  73 S8        30.03R
OLATHE IND     CLOUDY    71  62  73 CALM      30.09R
OLATHE EXE     PTSUNNY   68  61  78 CALM      30.08R
SALINA         SUNNY     68  57  68 S7        30.04S
TOPEKA BILLARD CLOUDY    68  65  90 E3        30.07S
TOPEKA FORBES  CLOUDY    67  60  78 SE5       30.07S
$$


USA.gov is the U.S. government's official web portal to all federal, state and local government web resources and services.